Weather in La Ciotat

France     43°11′22″N   5°38′04″E
temp.,
°C
wind,
m/s
gust,
m/s
humid.,
%
clouds,
%
prec.,
mm/h
press.,
hPa
HPBL,
m
13 april, tue
tue1323:00+6nnw714490 0.0 1018763
02:00+4nnw36580 0.0 1019275
05:00+3nnw35600 0.0 1018109
08:00+4nnw35590 0.0 1018140
11:00+11nnw35280 0.0 1018750
14:00+16nnw562369 0.0 10181530
17:00+17nw3423100 0.0 10171778
20:00+11se115097 0.0 1019177
14 april, wed
wed1423:00+7e127299 0.0 1021123
02:00+6ene3380100 0.0 102274
05:00+6ne238250 0.0 102152
08:00+7ne238258 0.0 102285
11:00+13sse225224 0.0 10211436
14:00+12s2263100 0.3 10201078
17:00+11ssw226669 0.6 1020886
20:00+9ssw22756 0.8 1020190
15 april, thu
thu1523:00+7s118412 0.0 102016
02:00+8se127885 0.0 102060
05:00+6ne22830 0.0 101933
08:00+6ne22812 0.0 102067
11:00+12sse114821 0.0 10191484
14:00+13s435599 0.1 10181460
17:00+10sse2368100 0.2 10181008
20:00+9se1277100 0.6 1018390
16 april, fri
fri1623:00+8ene227841 0.1 1019103
02:00+6ne227788 0.1 101858
05:00+7ne117330 0.0 101622
08:00+7nne227419 0.0 101664
11:00+12se244293 0.0 10151802
14:00+12ssw445396 0.5 10151463
17:00+11sw236183 1.1 1014875
20:00+9wnw117589 2.6 101549
17 april, sat
sat1723:00+7nne2284100 0.3 101638
02:00+6nne2283100 0.3 101543
05:00+6nne2385100 0.0 101452
08:00+7nne227889 0.0 101461
11:00+13s224987 0.0 10131117
14:00+13sw434753 0.3 10121516
17:00+14wsw554319 0.3 10111543
20:00+11wsw22492 0.3 1012220